Wind_Speed
42 39 43 42 44 46 46 44 43 39 36 36 35 30 24 18 18 18 16 14 13 11 12 9 8 7 8 10 9 12 15 15 20 28 32 33 32 24 26 28 26 27 27
38 40 38 40 54 51 52 49 47 44 44 43 44 39 32 23 20 22 19 17 19 13 12 13 12 8 8 10 13 13 14 14 12 17 24 25 23 29 29 27 28 25 26
44 41 39 51 59 45 40 49 45 41 42 52 53 54 36 28 22 25 22 21 21 19 16 15 17 15 12 11 11 12 13 14 12 10 9 13 18 24 31 24 20 23 23
39 46 50 47 51 50 36 58 41 26 44 37 52 58 37 31 26 28 24 23 24 23 20 17 16 20 18 12 13 13 14 15 14 14 12 14 15 15 15 17 19 21 21
29 28 23 26 19 18 23 28 10 7 20 14 19 39 36 32 29 29 27 27 28 27 26 23 18 19 24 20 16 16 18 17 16 15 15 17 20 19 18 19 20 20 21
26 25 20 17 18 11 14 15 16 20 20 12 11 17 31 35 38 35 30 31 31 31 29 27 23 22 24 25 20 16 17 21 20 19 20 22 23 26 25 23 23 23 24
21 21 16 14 14 9 10 8 16 17 19 20 17 24 30 45 45 36 36 35 33 35 30 29 25 23 21 24 21 17 18 21 22 21 22 25 27 28 26 25 23 22 23
24 21 17 16 17 16 10 7 12 21 19 18 18 16 18 32 37 32 38 38 39 37 35 32 27 29 24 23 23 22 19 19 21 20 21 21 24 26 23 23 24 21 24
20 23 23 22 21 19 22 22 19 21 20 22 19 15 17 22 37 35 38 46 44 40 39 37 32 32 31 28 26 24 22 22 22 22 21 18 18 22 25 27 27 28 29
19 21 20 20 21 20 23 26 28 26 26 26 20 17 23 21 18 19 29 32 46 39 41 42 40 37 34 33 31 28 24 27 24 22 23 24 25 28 30 31 31 31 30
22 25 26 25 25 26 25 23 26 29 24 23 32 26 20 20 20 28 29 25 23 31 40 41 41 39 40 38 35 33 29 28 28 28 25 25 27 27 30 32 30 28 31
28 27 24 23 24 23 24 24 25 27 29 24 32 34 30 30 29 28 31 29 28 31 34 37 34 38 45 48 43 38 33 31 30 32 31 29 28 27 28 28 28 28 29
19 20 18 16 16 16 21 25 26 28 27 31 29 30 32 28 30 34 37 34 37 41 39 40 41 43 39 48 41 37 33 35 36 35 33 33 31 29 27 27 29 30 31
20 21 19 16 15 14 13 14 19 24 26 28 28 24 24 26 30 34 36 36 33 38 42 45 47 48 48 50 51 48 38 36 39 38 35 33 33 29 26 28 31 35 33
17 17 18 17 17 18 19 18 19 19 21 22 24 29 32 32 31 32 31 32 35 37 40 40 37 37 41 40 40 37 36 38 39 38 38 34 33 31 30 32 34 34 34
10 12 13 13 15 16 16 16 18 19 20 21 24 27 32 34 33 34 35 37 37 37 39 37 31 30 29 30 31 31 34 34 35 38 36 35 35 35 35 34 36 36 36
13 15 15 14 13 15 16 19 20 22 23 25 27 28 29 28 28 29 33 36 38 37 36 38 35 36 36 37 37 35 34 36 38 38 38 38 39 38 37 36 37 38 36
8 10 12 13 13 15 15 15 16 18 19 21 27 31 34 34 34 35 35 34 35 38 40 40 41 42 43 44 44 43 41 40 38 37 38 40 40 39 38 37 37 38 38
14 15 15 17 19 19 20 20 21 21 24 24 24 23 23 25 26 29 34 39 41 41 41 40 42 42 44 46 46 45 44 45 43 42 41 39 40 40 39 38 39 39 40
16 18 19 20 21 22 23 25 27 29 30 31 31 33 34 34 33 33 32 32 35 39 43 45 46 45 44 44 43 43 44 42 42 42 42 42 41 40 39 39 42 39 43
19 21 24 24 23 23 25 27 28 30 33 36 37 38 38 40 41 40 41 41 40 39 38 37 39 42 45 46 46 47 47 46 45 42 41 41 41 39 40 38 33 48 55
24 25 26 27 27 27 28 29 30 32 34 36 39 41 43 43 41 41 43 43 45 43 41 38 35 35 36 37 39 41 44 47 47 46 44 42 42 40 41 39 44 45 44
26 27 28 29 30 30 31 33 35 36 38 41 41 41 40 40 41 39 38 38 39 44 44 40 37 37 37 38 38 37 38 40 41 43 44 42 40 38 42 38 37 50 45
29 29 30 30 31 34 37 38 38 38 38 39 39 38 39 39 38 36 36 34 32 34 40 43 40 37 37 37 36 37 38 37 39 40 42 45 41 37 39 47 46 47 51
32 32 33 35 33 34 38 38 36 37 38 37 37 37 38 38 38 37 34 33 34 33 30 32 35 36 33 32 34 32 31 34 30 33 38 36 41 51 49 48 49 49 48
36 36 38 37 36 37 38 37 37 36 38 37 37 39 38 37 34 33 32 32 32 31 30 27 25 24 26 25 24 23 21 16 26 33 35 34 42 56 54 51 46 48 42
Wind_Direction
222 226 233 233 239 243 247 250 254 254 260 261 257 253 248 252 259 260 257 255 256 260 267 272 262 263 270 304 290 287 289 290 275 267 256 256 259 246 250 250 255 265 268
216 220 235 227 240 240 246 252 253 255 255 259 257 246 247 243 251 250 253 249 254 250 260 265 263 256 255 268 286 287 290 289 293 278 269 250 256 244 250 261 265 268 272
222 231 233 241 245 228 239 241 250 251 261 261 258 236 237 233 242 245 241 246 246 245 241 250 268 260 251 257 260 272 279 291 307 291 271 260 262 259 247 251 264 268 272
229 240 240 256 261 252 263 263 240 275 257 260 241 245 223 229 232 243 234 242 244 243 244 244 253 267 264 257 271 266 272 274 275 279 283 285 275 273 272 264 260 262 267
252 266 283 326 335 337 332 289 318 15 340 249 229 231 224 230 229 234 229 234 245 247 247 247 250 261 277 272 266 272 262 261 263 267 278 281 281 275 267 263 264 264 268
274 298 298 312 312 310 333 311 249 274 269 240 234 242 236 237 235 236 227 234 239 249 251 252 251 251 261 268 260 265 265 258 259 259 269 275 282 277 271 268 267 270 272
258 270 272 277 284 291 322 300 225 225 237 234 231 237 244 235 231 233 229 232 237 244 250 253 252 250 251 257 260 261 266 269 264 263 271 275 272 266 265 270 273 272 272
255 262 264 266 274 268 270 265 257 230 247 248 233 244 302 255 231 233 236 233 237 239 246 250 248 252 246 248 251 255 261 266 266 261 267 275 263 252 254 263 268 276 281
255 262 270 270 272 262 260 248 242 247 251 240 251 258 242 248 253 246 239 237 233 236 241 246 248 249 252 248 249 250 259 256 259 259 259 262 250 246 254 268 272 276 277
260 268 268 274 278 274 269 260 252 258 248 240 233 250 240 252 242 264 265 272 249 251 240 243 246 245 247 248 255 252 251 254 255 256 257 258 258 259 262 267 269 272 277
268 273 273 276 281 278 276 280 273 263 254 241 233 230 230 235 235 248 257 262 247 254 252 256 247 249 252 249 246 252 250 253 252 259 261 259 260 259 261 264 266 276 278
273 281 284 283 281 274 269 267 271 271 262 261 250 231 239 236 250 261 254 261 262 258 261 253 258 248 246 249 243 242 245 252 252 253 257 258 257 259 263 264 271 284 278
276 279 273 272 278 280 279 269 261 264 271 270 270 268 265 265 265 265 259 268 260 257 259 262 263 264 252 248 245 244 246 255 255 250 249 252 256 260 272 272 271 273 272
275 279 276 269 270 273 271 276 272 267 271 265 261 262 271 271 274 271 268 268 264 262 258 266 264 261 257 253 251 255 246 255 260 259 254 251 255 261 267 268 266 270 267
273 271 274 277 275 276 274 276 272 268 263 262 264 264 263 270 268 268 272 277 274 270 264 262 261 264 257 253 250 247 252 256 258 262 261 257 258 259 262 262 264 265 263
276 277 277 278 278 277 276 270 267 268 268 270 268 267 269 276 279 274 274 273 270 264 254 245 249 255 255 249 249 252 257 258 257 256 256 258 256 257 258 262 265 269 267
275 281 280 283 286 287 288 283 275 270 266 263 263 262 261 263 265 268 267 267 265 262 262 260 251 257 256 253 255 262 266 260 254 252 249 247 248 251 256 258 260 263 266
273 278 286 292 296 294 292 293 295 295 288 278 269 263 262 262 261 260 262 261 259 257 257 259 261 256 256 258 260 262 261 258 256 253 249 250 253 256 258 259 260 260 262
268 279 291 296 298 298 296 296 294 289 288 288 286 284 280 278 276 274 269 264 262 260 257 253 254 261 260 257 257 259 260 257 256 256 255 253 252 255 257 258 256 257 258
276 283 287 287 290 291 294 296 297 297 295 291 287 284 281 278 277 275 273 274 273 268 262 258 256 253 249 253 260 262 259 258 256 255 256 256 256 254 253 252 253 248 256
279 282 285 287 288 291 295 296 298 300 299 297 292 286 280 276 275 272 271 271 269 268 269 268 262 259 256 255 253 251 251 252 253 251 251 251 250 250 251 250 247 245 256
281 284 286 285 286 291 293 293 297 299 298 294 292 291 287 283 279 276 274 272 271 269 265 265 266 265 263 261 259 257 256 253 251 250 249 249 249 250 250 250 252 252 250
284 284 284 283 288 292 295 296 296 298 299 298 297 294 288 283 282 283 280 274 271 270 268 264 262 262 263 265 264 260 257 257 257 255 253 251 251 252 257 250 242 240 242
285 286 286 290 295 295 294 293 294 294 295 295 294 291 288 284 284 284 280 279 279 273 269 265 265 265 265 264 268 268 265 261 258 255 253 251 247 245 240 247 236 245 253
290 289 288 287 286 288 290 291 291 291 289 290 289 287 286 285 282 282 281 279 278 278 277 269 265 266 269 271 268 269 271 267 265 259 247 240 237 248 240 231 240 242 241
285 283 282 284 285 288 288 287 289 291 286 286 284 283 284 282 281 278 277 275 276 278 278 273 263 257 260 264 267 281 274 262 263 268 247 248 250 243 233 216 223 228 240
Height
5810 5812 5816 5818 5820 5820 5819 5823 5826 5830 5833 5835 5837 5839 5839 5841 5842 5843 5842 5843 5844 5843 5843 5844 5844 5845 5845 5846 5845 5844 5844 5842 5842 5845 5846 5848 5850 5850 5852 5853 5855 5856 5855
5797 5799 5805 5810 5794 5802 5805 5810 5814 5819 5822 5825 5824 5828 5833 5834 5836 5838 5837 5837 5840 5839 5840 5841 5842 5841 5841 5842 5842 5842 5842 5840 5840 5839 5839 5841 5842 5844 5846 5848 5848 5848 5849
5790 5792 5794 5795 5772 5782 5798 5785 5804 5807 5811 5811 5809 5813 5822 5824 5826 5831 5830 5831 5834 5834 5833 5834 5837 5837 5836 5836 5837 5838 5838 5837 5837 5837 5836 5837 5838 5840 5841 5842 5843 5844 5845
5786 5786 5783 5783 5775 5776 5790 5786 5792 5798 5802 5790 5793 5801 5808 5814 5816 5823 5821 5824 5829 5829 5828 5828 5830 5833 5834 5831 5833 5833 5834 5834 5833 5833 5834 5834 5835 5836 5837 5839 5839 5839 5838
5770 5758 5769 5775 5774 5776 5779 5787 5787 5785 5789 5786 5788 5796 5798 5802 5807 5814 5813 5816 5821 5823 5824 5824 5825 5826 5829 5827 5826 5827 5827 5829 5829 5829 5830 5831 5830 5832 5834 5834 5833 5831 5831
5770 5770 5774 5772 5776 5777 5776 5777 5776 5780 5784 5786 5786 5788 5791 5793 5799 5803 5803 5808 5811 5816 5817 5820 5819 5818 5821 5822 5822 5822 5821 5822 5823 5822 5824 5824 5826 5826 5827 5827 5826 5826 5825
5767 5768 5771 5773 5771 5771 5767 5769 5773 5776 5777 5778 5776 5781 5784 5784 5790 5792 5794 5799 5802 5807 5809 5814 5813 5812 5813 5814 5816 5814 5815 5815 5815 5815 5815 5816 5818 5818 5820 5820 5820 5820 5818
5760 5763 5766 5766 5766 5768 5766 5765 5767 5771 5774 5776 5779 5779 5775 5776 5780 5783 5787 5789 5793 5796 5800 5804 5806 5808 5807 5806 5808 5807 5807 5808 5809 5809 5808 5809 5809 5811 5812 5813 5813 5813 5811
5759 5760 5760 5761 5764 5765 5766 5765 5766 5766 5767 5772 5772 5771 5771 5773 5775 5777 5779 5780 5782 5786 5791 5794 5797 5800 5801 5801 5800 5799 5800 5800 5801 5801 5801 5802 5803 5803 5803 5805 5804 5804 5803
5755 5756 5758 5758 5759 5760 5761 5761 5760 5759 5761 5764 5764 5766 5767 5768 5770 5771 5774 5776 5777 5780 5780 5785 5788 5790 5791 5794 5796 5794 5791 5792 5795 5795 5795 5794 5796 5797 5795 5795 5796 5797 5796
5751 5752 5753 5752 5754 5754 5753 5753 5753 5755 5755 5755 5757 5759 5759 5760 5763 5767 5768 5768 5771 5772 5775 5778 5778 5779 5782 5784 5784 5786 5784 5782 5785 5785 5785 5785 5786 5787 5788 5788 5788 5788 5787
5747 5748 5746 5745 5745 5745 5745 5746 5748 5749 5749 5750 5748 5751 5752 5752 5756 5758 5759 5760 5762 5763 5766 5767 5768 5769 5772 5773 5774 5775 5773 5774 5776 5775 5776 5777 5777 5777 5778 5778 5779 5779 5777
5741 5740 5740 5739 5738 5737 5737 5736 5737 5740 5741 5742 5742 5742 5742 5744 5746 5748 5750 5751 5752 5753 5755 5755 5757 5758 5759 5763 5765 5762 5763 5764 5765 5767 5768 5768 5768 5767 5770 5769 5768 5767 5768
5732 5733 5733 5732 5732 5731 5730 5730 5730 5731 5733 5734 5733 5734 5736 5736 5736 5739 5739 5740 5742 5744 5744 5745 5744 5745 5748 5748 5751 5753 5753 5754 5756 5757 5759 5760 5758 5758 5758 5759 5758 5758 5756
5727 5726 5726 5726 5725 5725 5724 5724 5724 5723 5723 5724 5725 5726 5727 5729 5729 5729 5728 5727 5729 5731 5732 5732 5732 5732 5734 5735 5737 5739 5743 5745 5747 5748 5749 5749 5750 5748 5749 5747 5748 5749 5748
5721 5722 5721 5720 5721 5721 5721 5720 5717 5717 5718 5717 5717 5717 5717 5718 5718 5718 5718 5718 5718 5719 5721 5721 5722 5723 5724 5725 5728 5731 5733 5733 5734 5734 5735 5737 5738 5739 5738 5737 5737 5737 5737
5717 5718 5716 5717 5717 5716 5714 5713 5711 5710 5710 5710 5710 5710 5709 5710 5709 5709 5709 5708 5708 5710 5711 5710 5712 5713 5714 5715 5717 5718 5719 5719 5719 5720 5721 5722 5724 5724 5725 5725 5727 5725 5725
5713 5713 5713 5712 5711 5710 5710 5709 5706 5704 5703 5703 5703 5701 5700 5699 5699 5698 5698 5697 5697 5698 5700 5700 5701 5702 5703 5704 5704 5706 5706 5706 5707 5708 5709 5711 5710 5712 5713 5713 5714 5714 5715
5709 5707 5706 5706 5705 5704 5704 5702 5701 5699 5697 5696 5693 5692 5691 5690 5689 5688 5686 5686 5684 5684 5685 5685 5686 5688 5688 5689 5690 5691 5693 5694 5693 5693 5697 5697 5697 5698 5699 5700 5700 5700 5702
5702 5702 5701 5700 5699 5698 5697 5694 5692 5690 5688 5686 5686 5683 5681 5679 5677 5675 5674 5673 5672 5670 5670 5670 5670 5670 5671 5673 5675 5676 5677 5678 5679 5681 5681 5682 5684 5685 5686 5688 5688 5686 5688
5695 5695 5694 5692 5691 5690 5688 5686 5683 5681 5678 5675 5672 5670 5669 5667 5664 5662 5660 5659 5659 5658 5656 5655 5654 5654 5654 5655 5656 5657 5659 5662 5664 5665 5666 5668 5669 5670 5672 5672 5673 5675 5676
5689 5688 5685 5684 5683 5680 5678 5675 5673 5671 5668 5665 5661 5657 5653 5650 5649 5648 5646 5644 5643 5642 5641 5640 5640 5640 5639 5639 5640 5640 5642 5643 5646 5649 5651 5652 5653 5655 5657 5658 5658 5659 5660
5681 5678 5676 5676 5673 5671 5668 5664 5661 5658 5655 5652 5648 5644 5641 5639 5636 5634 5632 5630 5628 5627 5626 5626 5626 5626 5625 5626 5626 5626 5628 5628 5629 5631 5633 5635 5638 5640 5642 5644 5647 5646 5647
5672 5669 5668 5664 5661 5658 5656 5653 5650 5646 5643 5640 5636 5632 5629 5627 5626 5624 5621 5619 5617 5614 5613 5611 5613 5614 5613 5613 5613 5612 5612 5613 5615 5616 5618 5620 5624 5627 5629 5630 5632 5634 5636
5662 5659 5656 5654 5652 5649 5644 5641 5638 5634 5630 5627 5624 5621 5618 5616 5614 5611 5610 5608 5606 5604 5602 5601 5601 5602 5602 5603 5602 5600 5599 5600 5602 5604 5606 5608 5611 5613 5611 5614 5618 5618 5622
5651 5648 5646 5643 5639 5635 5632 5630 5627 5624 5619 5617 5614 5611 5608 5605 5603 5600 5598 5597 5595 5593 5592 5591 5590 5590 5591 5592 5592 5591 5589 5590 5591 5592 5593 5597 5599 5599 5603 5598 5602 5603 5603